Location: Crocus Hill
(18.2167°N, 63.0667°W)
Time: 14:44:21
(UTC+00:00)

Skynet4D Del rocket - Pass Details

Date: 26 January 2020
Orbit: 763 x 1291 km, 26.9° (Epoch: 22 February)

Event Time Altitude Azimuth Distance (km) Brightness Sun altitude
Exits shadow 09:27:09 33° 283° (WNW) 1,447 4.3 -18.9°
Maximum altitude 09:29:40 55° 343° (NNW) 1,015 3.9 -18.3°
Drops below altitude 10° 09:35:08 10° 61° (ENE) 2,356 6.7 -17.1°
Sets 09:37:34 0° 66° (ENE) 3,249 7.6 -16.5°
